Regional Weather Roundup
Issued by NWS Wilmington, NC

Home | Current Version | Previous Version | Text Only | Print | Product List | Glossary On
Versions: 1 2 3 4 5 6 7 8 9 10 11 12 13 14 15 16 17 18 19 20 21 22 23 24 25 26 27 28 29 30 31 32 33 34 35 36 37 38 39 40 41 42 43 44 45 46 47 48 49 50
000
ASUS42 KILM 301613
RWRILM
RWRILM
REGIONAL HOURLY WEATHER ROUNDUP
NATIONAL WEATHER SERVICE WILMINGTON NC
1200 PM EDT SUN AUG 30 2015

NOTE: "FAIR" INDICATES FEW OR NO CLOUDS BELOW 12,000 FEET WITH NO
SIGNIFICANT WEATHER AND/OR OBSTRUCTIONS TO VISIBILITY.

...............WFO WILMINGTON COUNTY WARNING AREA...............

......COASTAL NC AND SC COUNTIES......

CITY           SKY/WX    TMP DP  RH WIND       PRES   REMARKS
WILMINGTON     CLOUDY    79  65  62 NE7       30.16F
N MYRTLE BEACH PTSUNNY   82  70  66 E8        30.15F
MYRTLE BEACH   PTSUNNY   82  70  65 E14       30.16F

......INLAND NC AND SC COUNTIES.......

CITY           SKY/WX    TMP DP  RH WIND       PRES   REMARKS
LUMBERTON      CLOUDY    81  63  54 NE6       30.17F
ELIZABETHTOWN  CLOUDY    79  65  62 CALM      30.18S
WHITEVILLE     PTSUNNY   80  64  59 E6        30.16F
FLORENCE       CLOUDY    79  69  71 NE7       30.16F
DARLINGTON     CLOUDY    75  66  73 NE3       30.19S

....................REST OF NORTH CAROLINA......................

.........EASTERN NC.........

CITY           SKY/WX    TMP DP  RH WIND       PRES   REMARKS
CAPE HATTERAS  MOSUNNY   81  73  76 N6        30.17R
JACKSONVILLE   CLOUDY    79  63  57 NE5       30.17F
MOREHEAD CITY  CLOUDY    78  67  68 N6        30.18S
KENANSVILLE    CLOUDY    79  64  60 CALM      30.18F
NEW BERN       CLOUDY    80  65  59 CALM      30.18F
ELIZABETH CITY SUNNY     83  63  50 VRB3      30.17F

.........CENTRAL NC.........

CITY           SKY/WX    TMP DP  RH WIND       PRES   REMARKS
RALEIGH DURHAM PTSUNNY   83  61  47 CALM      30.18F
ROCKY MOUNT    MOSUNNY   87  59  38 NE3       30.17F
ROANOKE RAPIDS NOT AVBL
FAYETTEVILLE   CLOUDY    80  64  58 CALM      30.17F
HOFFMAN        CLOUDY    78  65  64 NE2       30.17F

.........WESTERN NC.........

CITY           SKY/WX    TMP DP  RH WIND       PRES   REMARKS
CHARLOTTE      CLOUDY    81  56  42 CALM      30.20S
GREENSBORO     CLOUDY    82  59  45 W5        30.19S
HICKORY        NOT AVBL
BOONE          NOT AVBL
ASHEVILLE      NOT AVBL

.....................REST OF SOUTH CAROLINA.....................

.........EASTERN SC.........

CITY           SKY/WX    TMP DP  RH WIND       PRES   REMARKS
CHARLESTON     HVY RAIN  75  72  90 SE8       30.15R FOG
BEAUFORT MCAS  CLOUDY    78  76  93 NE5       30.12F
HILTON HEAD    CLOUDY    79  73  83 N3        30.12F

.........CENTRAL SC.........

CITY           SKY/WX    TMP DP  RH WIND       PRES   REMARKS
COLUMBIA       LGT RAIN  77  65  66 NE7       30.16R
ORANGEBURG     CLOUDY    77  70  79 E7        30.15S
SUMTER SHAW    CLOUDY    75  67  76 NE6       30.15R

.........WESTERN SC.........

CITY           SKY/WX    TMP DP  RH WIND       PRES   REMARKS
GREENVILLE     NOT AVBL
ROCK HILL      CLOUDY    79  61  53 CALM      30.20S
ANDERSON       CLOUDY    76  63  64 E7        30.18S
CLEMSON        NOT AVBL
GREENWOOD      LGT RAIN  71  66  84 NE5       30.19S


...................COASTAL AND OFFSHORE REPORTS..................

................LOCAL PIERS AND NC RESERVE................


STATION/POSITION TIME  SKY/WX   TEMP    WIND        PRES    VSBY
                                AIR SEA DIR/SP/G
                 (UTC)          (F)     (DEG/KT/KT) (MB)    (MI)
JOHNY MRCER PIER NOT AVBL
NC RESRV MASNBRO NOT AVBL
OCEAN CREST PIER NOT AVBL
SPRINGMAID  PIER NOT AVBL


................COASTAL AND OFFSHORE BUOYS................


STATION/POSITION TIME  SKY/WX   TEMP    WIND        PRES    VSBY
                                AIR SEA DIR/SP/G
                 (UTC)          (F)     (DEG/KT/KT) (MB)    (MI)
DIMNDSHOAL 41025 1550            79 83  350/  8/ 10 1021.6R
WVE H/P(F/S)=  4/10 WND WVE H/P(F/S)=  2/ 4 SWL H/P/D(F/S/D)=  3/ 90/10

CAPE LOOKOUT     1600            78      50/  4/  5 1021.6S
ONSLOW BAY 41036 NOT AVBL
ONSLOW BAY 41064 1508            78 81   30/  4/  6 1022.4R
ONSLOW BAY 41159 1525               81                N/A
WVE H/P(F/S)=  4/10 WND WVE H/P(F/S)=  3/10 SWL H/P/D(F/S/D)=  2/130/11

5SE WRITBC 41038 1508            79 82   50/  8/ 12 1021.4F
MASNBO INL 41110 1519               82                N/A
WVE H/P(F/S)=  3/11 WND WVE H/P(F/S)=  2/10 SWL H/P/D(F/S/D)=  2/130/11

WILM HARBR 41108 1511               82                N/A
WVE H/P(F/S)=  3/11 WND WVE H/P(F/S)=  2/10 SWL H/P/D(F/S/D)=  2/150/11

27SE WRITB 41037 1500            75 81   60/  8/ 10   N/A
FRYING PAN 41013 1550            80 82   80/ 12/ 14 1021.3F
WVE H/P(F/S)=  4/10 WND WVE H/P(F/S)=  2/ 5 SWL H/P/D(F/S/D)=  3/130/10

SUNST NRSH 41024 1508            78      70/ 10/ 14 1021.2S
CAPRS NRSH 41029 NOT AVBL
EDISTO     41004 1550            80 85   80/ 10/ 14 1020.1R
WVE H/P(F/S)=  4/10 WND WVE H/P(F/S)=  2/ 5 SWL H/P/D(F/S/D)=  3/10



..........OFFSHORE BUOYS BEYOND 100 NM OFFSHORE...........
.....IN A TRIANGLE---HAT TO BERMUDA TO BAHAMAS TO HAT.....


STATION/POSITION TIME  SKY/WX   TEMP    WIND        PRES    VSBY
                                AIR SEA DIR/SP/G
                 (UTC)          (F)     (DEG/KT/KT) (MB)    (MI)
150E HAT   41001 1600            82 82  280/  8/ 10 1020.4R
W BERMUDA  41048 1550            84 84  210/  8/ 10 1022.2S
WVE H/P(F/S)=  4/10 WND WVE H/P(F/S)=  2/ 4 SWL H/P/D(F/S/D)=  5/120/10

ATLANTIC S 41049 1550            84 86   50/ 10/ 12 1021.1F
WVE H/P(F/S)=  5/10 WND WVE H/P(F/S)=  2/ 4 SWL H/P/D(F/S/D)=  5/ 30/10

E BAHAMAS  41046 1550            83 86  140/ 10/ 12 1019.6F
WVE H/P(F/S)=  5/ 9 WND WVE H/P(F/S)=  3/ 4 SWL H/P/D(F/S/D)=  5/ 70/ 9

NE BAHAMAS 41047 1550            85 86  100/ 16/ 19 1020.2R
WVE H/P(F/S)=  6/11 WND WVE H/P(F/S)=  3/ 6 SWL H/P/D(F/S/D)=  5/ 60/11

120E CANVRL41010 1520            85 85  130/ 19/ 21 1017.9F

END


USA.gov is the U.S. government's official web portal to all federal, state and local government web resources and services.